COSMOS 2251 DEB, 37996

Orbit data source: Space-Track

COSMOS 2251 DEB, 37996 is space debris in LEO originally from a launch on Wed, 16 Jun 1993 UTC launched from the Plesetsk Missile And Space Complex (PKMTR). The debris from Iridium 33, an American commercial communications satellite, has been tracked extensively since its accidental collision with the defunct Russian satellite Cosmos 2251 in 2009. This event, occurring at high speed in low Earth orbit (LEO), generated thousands of pieces of space debris, significantly increasing the risk of further collisions. The Iridium 33 debris cloud has impacted space traffic management and orbital debris mitigation strategies, making it a subject of ongoing study in space situational awareness.

Loading next visibility...
Identifier
37996, 1993-036BQX
Orbit
LEO
Country
Flag of CISCIS
Related business
Manufacturer
Unknown
Mission
Spacecraft
Bus & Motor
Unknown
Mass
Unknown
Launch date (UTC)
1993-06-16 (33 years ago)
Launch vehicle
Unknown
Launch site
Plesetsk Missile And Space Complex (PKMTR)
Object type
Payload
Rocket body
Debris
Shape & HBR
Unknown shape, 1.1 m
Radar Cross Section
Small (<0.1 m²)

Expand to show TLE details & history
Last TLE update: 5 months ago

TLE from 5 months ago
0 COSMOS 2251 DEB
1 37996U 93036BQX 25320.77431376  .00021331  00000-0  96791-2 0  9999
2 37996  74.0658 248.8308 0221983   5.4709 354.8776 14.09591608557694
Epoch: 2025-11-16T18:35Z
TLE epoch observation values (Epoch: 2025-11-16T18:35:00.708Z)
Latitude
-0.00002°
Longitude
-86.00644°
Altitude
703.305 km
Speed
7.587 km/s
True Right ascension
16h 35m 19s
True Declination
0° 00' 00"
Sunlit
Object was in daylight at epoch
Visualization orbit readout
Latitude
Unknown
Longitude
Unknown
Altitude
Unknown
Speed
Unknown
Apparent Right ascension
Unknown
Apparent Declination
Unknown
Sunlit
N/A
Visualization observer readout
Local Sidereal Time
18:17:25
Azimuth
Unknown
Elevation
Unknown
Doppler factor
Unknown
Orbital elements
Apogee altitude
1,019.058 km
Perigee altitude
697.779 km
Semi-major axis
7,236.556 km
Eccentricity
0.0222
Inclination
74.0658°
RAAN
248.8308°
Arg. of periapsis
5.4709°
True anomaly
354.64404°
Mean anomaly
354.8776°
Eccentric anomaly
354.76148°
Mean motion
3.5257 °/min
Orbital period
102.11 mins
BSTAR
0.0096791

Documentation

Showing up to 5 results
|